Location: Boleita
(10.4833°N, 66.8167°W)
Time: 02:36:19
(UTC+00:00)

FALCON 9 R/B - Pass Details

Date: 08 November 2025
Orbit: 299 x 9287 km, 34.5° (Epoch: 09 December)

Event Time Altitude Azimuth Distance (km) Brightness Sun altitude
Exits shadow 08:55:05 24° 305° (NW) 3,940 5.0 -21.0°
Maximum altitude 09:03:14 89° 215° (SW) 1,201 2.9 -19.1°
Drops below altitude 10° 09:07:50 10° 126° (SE) 2,122 5.4 -18.0°
Sets 09:09:18 0° 126° (SE) 2,732 6.2 -17.6°
